CDT,Max TemperatureF,Mean TemperatureF,Min TemperatureF,Max Dew PointF,MeanDew PointF,Min DewpointF,Max Humidity, Mean Humidity, Min Humidity, Max Sea Level PressureIn, Mean Sea Level PressureIn, Min Sea Level PressureIn, Max VisibilityMiles, Mean VisibilityMiles, Min VisibilityMiles, Max Wind SpeedMPH, Mean Wind SpeedMPH, Max Gust SpeedMPH,PrecipitationIn, CloudCover, Events, WindDirDegrees
2011-10-1,69,52,35,34,27,18,81,46,15,30.34,30.27,30.21,10,10,10,14,7,17,0.00,0,,141
2011-10-2,78,58,39,34,30,24,73,40,13,30.24,30.20,30.14,10,10,10,16,8,20,0.00,0,,180
2011-10-3,81,62,44,34,30,19,64,37,10,30.22,30.18,30.13,10,10,10,16,8,23,0.00,0,,166
2011-10-4,86,67,48,44,35,32,59,33,15,30.17,30.11,30.04,10,10,10,21,9,26,0.00,0,,158
2011-10-5,84,70,57,43,33,17,54,29,8,30.11,30.06,30.00,10,10,7,21,11,28,0.00,0,,175
2011-10-6,80,64,48,40,35,31,69,38,17,30.05,30.00,29.92,10,10,10,24,11,36,0.00,0,,145
2011-10-7,82,74,65,55,51,38,57,43,33,29.99,29.94,29.90,10,10,7,36,21,46,0.00,3,,174
2011-10-8,78,72,65,56,51,47,70,49,40,30.12,30.06,29.98,10,10,10,23,15,31,0.00,5,,184
2011-10-9,80,66,53,56,47,35,81,52,21,30.20,30.15,30.08,10,10,10,18,9,29,0.00,1,,150
2011-10-10,69,61,53,56,49,45,87,67,42,30.07,30.02,29.94,10,10,5,14,8,21,0.02,3,,175
2011-10-11,75,60,45,53,43,33,92,62,22,29.95,29.88,29.78,10,8,0,21,8,26,0.00,2,,166
2011-10-12,65,59,53,54,49,45,82,69,53,29.78,29.73,29.69,10,10,3,10,5,16,0.22,5,,276
2011-10-13,67,55,43,45,38,25,86,60,21,29.80,29.76,29.72,10,10,10,26,12,36,0.15,1,,292
2011-10-14,60,50,39,38,31,21,79,53,22,29.94,29.86,29.78,10,10,10,26,14,39,0.00,2,,289
2011-10-15,66,51,36,34,28,17,83,52,15,30.03,29.95,29.82,10,10,10,14,8,18,0.00,2,,250
2011-10-16,59,50,41,39,30,16,80,51,19,30.03,29.95,29.81,10,10,10,23,13,32,0.00,1,,328
2011-10-17,57,45,33,28,23,12,67,45,17,30.02,29.99,29.95,10,10,10,21,10,30,0.00,2,,280
2011-10-18,50,41,32,30,23,14,76,50,25,30.07,30.02,29.95,10,10,10,25,13,31,0.00,2,,329
2011-10-19,46,36,27,28,23,18,73,57,44,30.11,30.07,30.05,10,10,10,18,12,25,0.00,5,,348
2011-10-20,53,40,27,30,24,20,85,60,27,30.05,30.02,29.98,10,10,10,16,9,23,0.00,0,,311
2011-10-21,65,48,30,33,26,23,75,49,22,30.08,30.05,30.01,10,10,10,16,8,21,0.00,0,,244
2011-10-22,62,50,38,35,32,25,76,51,25,30.15,30.10,30.06,10,10,10,9,7,,0.00,2,,359
2011-10-23,73,57,41,43,37,30,88,58,20,30.00,29.92,29.83,10,9,5,21,9,32,0.00,1,,242
2011-10-24,71,56,40,37,32,26,78,52,19,30.08,30.03,29.93,10,10,10,13,7,18,0.00,0,,207
2011-10-25,65,55,45,44,39,32,78,56,39,29.98,29.78,29.71,10,10,10,23,10,29,0.00,1,,358
2011-10-26,51,44,37,36,33,30,75,63,47,30.11,30.07,30.00,10,10,10,15,10,20,0.00,4,,344
2011-10-27,52,40,28,30,20,11,84,49,19,30.12,30.10,30.08,10,10,10,15,8,21,0.00,1,,277
2011-10-28,54,42,29,27,17,8,64,42,16,30.14,30.11,30.07,10,10,7,25,12,33,0.00,1,,272
2011-10-29,57,42,27,21,17,11,58,37,19,30.10,29.99,29.84,10,10,2,18,10,26,0.00,0,,178
2011-10-30,52,45,38,32,25,17,77,46,26,30.02,29.90,29.79,10,10,10,28,14,38,0.00,2,,296
2011-10-31,59,42,25,27,21,14,83,53,17,30.06,30.02,29.93,10,10,10,14,9,18,0.00,0,,226